RH
13 20 22 19 17 14 15 15 16 13 12 31 31 31 27 39 42 44 45 44 43 40 36 38 49 48 50 54 62 62 63 55 66 65 62 61 59 54 55 66 60 61 60 64
14 18 17 15 14 12 12 14 15 14 12 29 34 28 24 32 36 39 40 41 41 40 38 38 44 47 52 58 64 65 63 56 62 61 57 56 55 59 51 59 62 57 59 62
15 15 13 15 15 14 12 12 12 14 13 34 34 37 34 28 24 30 34 34 36 37 38 38 37 46 48 61 63 64 60 60 60 58 56 64 60 65 67 66 64 59 62 64
16 13 13 13 15 14 18 10 10 12 15 29 30 44 42 35 31 30 30 32 34 34 33 36 36 39 46 55 61 63 66 61 63 61 64 72 72 73 66 64 62 60 62 68
18 15 14 15 14 13 14 11 13 13 15 18 19 38 39 36 35 31 30 29 30 31 32 35 36 35 42 49 57 59 59 58 62 63 66 69 68 63 59 58 62 69 68 67
14 11 12 12 11 12 10 9 12 14 16 25 20 29 39 37 32 27 26 26 27 29 30 31 33 34 38 46 54 58 59 66 61 64 66 66 68 63 61 60 64 67 67 68
16 14 10 10 14 11 10 11 16 18 19 23 19 33 28 28 28 22 23 25 24 26 28 30 35 35 37 45 54 61 63 68 69 67 66 67 64 62 56 59 64 66 68 72
21 22 15 10 11 12 12 10 14 20 25 24 19 32 23 21 23 23 20 22 22 23 25 28 31 35 35 42 55 62 67 66 71 72 69 66 65 61 58 65 65 62 61 69
21 18 12 11 11 10 12 11 8 14 19 23 21 18 17 20 20 23 23 22 23 21 22 24 29 33 35 42 55 63 68 67 72 72 70 68 64 64 66 68 65 64 62 62
12 19 13 10 12 11 11 10 10 13 14 15 16 19 18 17 23 24 23 23 23 21 20 20 24 30 36 38 54 61 68 66 72 75 72 71 66 68 68 68 68 66 60 60
9 14 13 13 13 14 14 12 11 10 11 12 20 13 13 15 19 25 25 22 21 23 22 22 22 28 33 37 52 62 70 68 74 78 77 78 74 70 71 63 68 65 63 59
12 11 14 12 12 11 11 12 12 12 15 15 9 10 9 12 13 23 24 20 20 20 22 24 23 26 31 38 49 60 72 70 73 79 80 80 80 79 74 66 65 70 66 58
36 17 16 18 14 12 13 12 10 15 15 13 20 12 9 9 12 22 22 19 19 22 24 25 25 27 32 38 44 54 69 72 74 77 82 84 87 86 76 68 71 69 71 63
38 34 19 18 15 12 14 11 11 10 12 12 12 12 9 10 12 19 16 22 21 25 27 23 27 28 33 37 41 51 59 71 75 78 78 81 86 88 81 72 73 73 71 68
53 51 23 20 15 10 13 14 11 12 10 11 10 12 11 10 10 11 12 22 23 21 33 26 29 30 36 39 40 47 57 68 73 78 81 80 81 85 87 85 82 79 77 76
55 55 42 33 19 11 11 11 12 11 10 10 11 11 10 9 14 15 17 18 21 15 15 27 26 29 33 39 41 43 52 67 72 78 80 82 83 84 86 88 89 86 83 81
65 57 50 48 22 12 15 12 13 13 12 10 12 11 14 12 16 20 20 27 24 21 27 33 27 29 32 37 40 42 49 62 71 74 79 81 85 88 88 88 91 95 92 87
55 51 47 49 36 24 13 10 9 12 13 13 10 11 14 11 11 17 24 25 16 22 23 36 28 28 31 32 38 42 44 53 66 69 75 80 83 86 87 90 92 94 97 92
40 46 47 49 47 24 17 18 13 15 14 18 15 14 15 19 19 32 24 17 15 15 21 31 34 28 28 31 35 41 46 50 55 62 71 76 80 82 86 88 92 93 95 98
28 30 40 39 42 36 18 14 18 20 27 37 35 37 30 27 29 34 37 24 21 20 23 19 36 38 36 32 33 39 44 50 52 54 58 71 75 79 82 86 86 89 90 94
70 64 49 44 46 33 21 17 21 29 34 39 41 41 38 43 41 36 33 29 26 24 28 24 15 31 35 38 35 38 42 47 48 50 53 61 71 75 77 80 85 84 88 93
79 86 78 55 57 37 49 44 24 36 52 45 47 38 47 63 78 79 71 54 40 33 29 26 28 22 23 34 40 40 42 42 44 48 51 57 67 71 74 79 83 85 93 99
88 78 84 78 89 66 75 81 75 70 79 75 81 74 72 82 87 86 91 90 91 90 89 84 39 25 21 38 43 44 41 40 43 47 52 62 66 67 74 84 92 100 100 100
79 83 82 77 84 87 87 78 78 75 79 79 79 80 79 87 88 94 93 95 96 96 97 96 96 88 85 58 45 43 43 47 52 60 61 76 77 83 91 92 98 99 100 100
85 78 89 86 86 89 79 79 85 77 68 71 71 76 81 85 92 90 92 95 96 96 96 95 98 99 99 96 71 63 74 60 74 92 97 98 100 98 100 100 100 100 100 99
94 95 85 98 95 93 90 74 68 66 65 66 66 72 77 81 87 84 88 89 93 95 93 90 85 90 93 87 96 92 87 86 94 98 100 100 100 100 100 100 100 100 96 94
Wind_Speed
5 6 13 10 8 6 5 6 8 7 4 7 13 13 21 28 23 23 22 21 21 22 20 23 36 37 32 37 39 41 38 42 40 36 30 25 23 23 19 15 17 17 18 17
4 12 7 8 7 10 10 12 18 8 6 4 9 16 19 26 27 27 23 22 23 21 19 20 30 39 37 41 40 40 43 44 44 39 33 29 26 22 22 19 20 18 19 20
12 8 14 9 11 10 14 16 15 10 7 3 6 2 3 8 5 16 22 24 22 24 23 21 23 33 38 37 42 43 47 47 45 40 35 30 26 23 22 18 19 19 19 23
9 13 12 19 14 12 11 15 16 10 2 5 7 4 7 12 8 17 22 21 22 24 23 21 24 30 36 40 43 44 43 47 46 43 38 35 29 25 28 26 20 21 26 25
10 18 20 16 16 16 13 9 10 12 7 4 10 2 7 8 15 12 17 24 23 24 24 23 24 37 39 40 41 45 47 46 44 44 41 39 35 33 28 27 26 21 27 25
15 8 15 15 13 17 14 6 7 5 8 9 14 12 6 8 14 17 18 22 25 24 24 24 36 39 37 38 40 41 43 43 44 43 43 42 38 35 28 26 22 21 26 27
8 17 5 11 8 9 10 7 6 6 8 11 9 8 11 15 17 24 26 22 25 25 24 23 22 23 33 35 38 38 41 39 42 46 46 44 41 35 30 31 28 24 28 30
13 12 13 10 14 19 9 13 9 9 4 5 6 8 13 15 18 26 28 22 22 23 24 26 26 29 36 36 39 40 40 39 41 44 45 44 41 36 33 30 31 26 29 35
7 14 4 19 10 15 10 8 13 7 3 1 5 6 8 11 13 20 25 18 23 26 25 28 26 32 38 36 41 43 42 41 42 44 43 43 42 39 37 34 29 28 33 35
12 4 11 21 9 21 11 8 3 1 14 16 5 5 10 7 12 11 22 26 26 29 30 27 24 29 38 41 42 43 45 47 46 45 43 43 45 43 39 36 34 30 35 33
20 11 11 5 14 18 10 11 3 5 8 11 4 16 8 11 9 9 18 27 28 28 28 23 23 32 40 40 38 40 40 42 41 42 41 38 41 42 41 41 37 35 35 36
13 14 15 26 11 14 20 13 11 8 8 8 17 24 5 9 9 11 16 21 25 23 21 21 22 23 29 35 36 40 39 41 42 42 41 40 38 39 41 45 43 36 36 38
9 5 10 8 9 8 8 14 19 6 4 16 9 6 6 7 6 9 8 8 5 6 8 13 17 19 20 33 36 38 39 42 41 40 39 37 37 38 43 45 42 44 39 40
10 6 14 19 16 6 6 16 16 19 14 13 21 8 5 4 4 7 11 10 15 14 10 16 18 21 21 34 37 38 39 42 41 41 40 38 39 42 44 45 42 42 44 42
8 6 4 15 16 21 14 11 21 23 23 22 21 10 10 10 9 10 10 9 10 11 11 15 14 15 18 28 35 36 38 40 43 42 41 42 43 41 40 39 39 40 40 42
6 5 8 7 13 24 24 21 22 22 23 20 7 7 10 13 8 8 10 10 10 16 15 17 23 26 23 26 34 38 38 40 41 41 43 42 40 39 39 38 37 37 38 40
4 4 8 6 6 20 20 30 15 13 11 15 14 9 10 8 10 10 9 9 9 9 10 17 19 20 21 31 37 36 40 38 41 42 38 40 39 39 40 38 35 35 37 35
9 8 3 6 8 20 13 19 20 9 7 10 12 13 12 15 14 10 8 10 10 10 7 9 14 20 29 38 36 40 37 39 40 40 38 38 39 39 38 37 37 35 34 35
18 11 4 4 4 6 4 6 13 9 12 8 9 8 8 6 7 5 2 1 5 8 9 9 17 21 29 27 32 33 33 37 36 36 38 40 40 38 36 37 36 34 32 31
21 19 10 6 4 6 5 4 11 7 2 3 9 9 8 7 5 4 5 3 3 2 2 5 20 25 23 26 33 31 33 36 37 41 43 44 41 38 38 37 35 33 34 34
2 3 10 12 8 9 4 4 3 9 7 3 4 6 7 6 5 3 3 4 2 2 6 7 16 16 29 34 29 28 32 33 45 46 41 36 39 40 38 34 33 33 33 28
4 4 3 2 6 7 25 18 8 7 3 8 5 3 10 9 7 7 6 4 2 6 7 8 6 11 22 33 35 30 28 41 41 34 33 34 36 36 34 35 32 33 31 28
7 5 6 6 5 11 19 9 8 7 9 4 7 5 10 8 6 6 5 7 6 7 7 13 7 11 21 26 30 27 39 37 34 34 33 34 33 34 35 36 32 30 32 28
7 4 3 5 2 12 19 19 13 11 12 9 9 10 7 11 6 7 7 7 7 7 7 9 10 6 8 22 31 33 36 39 36 33 32 32 34 34 33 35 36 33 31 26
2 6 4 2 5 11 12 17 9 9 13 15 13 13 9 9 8 6 7 7 6 6 7 11 7 9 16 18 24 28 27 32 32 30 27 26 26 27 29 27 22 24 24 30
2 2 5 3 4 3 5 13 10 12 13 11 12 14 12 11 9 6 9 6 7 8 9 7 12 13 15 25 34 19 36 38 32 27 32 28 28 27 26 25 29 22 22 14
Wind_Direction
215 195 223 216 199 210 229 253 252 271 338 142 177 168 166 172 179 183 184 186 190 192 197 179 184 187 190 190 190 191 190 195 198 200 199 202 208 217 221 222 217 210 209 216
245 228 201 199 209 211 233 247 264 312 260 174 212 174 169 173 186 184 183 188 192 195 193 195 175 185 187 187 190 188 192 196 200 203 205 205 207 211 214 230 227 226 224 224
207 225 203 202 224 219 225 231 251 235 313 130 132 50 157 198 180 190 191 191 192 192 193 192 188 185 184 186 187 188 194 198 201 203 202 204 208 212 221 224 225 228 231 216
229 223 207 211 224 215 233 227 246 254 258 263 172 230 214 212 223 188 193 195 196 197 198 190 192 188 189 187 188 188 192 197 198 201 199 199 199 206 218 223 231 236 216 208
217 191 214 211 212 216 243 225 242 235 234 191 251 198 247 179 226 216 195 197 198 198 197 195 196 196 194 190 189 190 192 195 196 199 199 199 202 212 222 223 228 234 219 213
218 220 202 216 214 218 229 237 262 230 225 241 235 222 237 206 206 217 200 203 197 199 198 200 200 198 197 192 192 192 190 191 197 197 200 201 205 211 219 221 228 233 218 211
226 231 218 205 196 218 197 173 243 252 231 236 218 215 225 210 205 204 206 200 197 196 197 201 197 199 198 193 191 190 190 190 192 194 198 202 208 211 222 220 222 214 209 203
214 243 213 209 202 215 202 198 205 213 215 256 208 216 236 224 210 203 212 204 191 195 200 201 198 198 198 193 188 189 190 192 193 194 199 205 210 216 219 220 221 223 218 206
176 233 261 218 207 194 229 190 202 194 201 304 230 256 276 227 226 214 213 200 194 197 199 203 199 200 197 192 189 189 189 193 194 197 201 205 212 214 216 221 219 223 216 208
221 285 219 238 216 239 196 176 223 240 222 238 255 238 231 213 233 214 205 203 195 196 204 204 195 197 198 195 191 190 190 192 194 197 200 203 210 213 216 221 220 218 212 210
208 200 236 200 221 219 208 209 214 191 201 229 240 251 191 232 231 210 214 199 196 195 203 202 199 196 195 194 189 190 191 193 193 195 197 199 206 210 213 220 224 218 217 214
274 216 230 231 214 209 224 214 186 211 233 236 229 245 128 204 240 235 202 206 203 199 192 199 194 193 190 190 188 189 189 193 195 194 195 199 202 207 211 217 223 223 217 217
324 217 230 291 276 235 206 224 216 129 128 221 210 260 201 206 289 174 182 180 161 223 189 199 189 187 188 190 190 189 189 193 195 193 193 196 199 202 211 217 217 223 223 220
354 248 246 235 224 182 192 217 212 211 217 222 231 217 277 276 256 271 272 222 197 175 195 185 187 190 189 191 191 191 193 191 191 193 194 196 198 203 210 216 216 219 220 223
11 275 271 273 265 210 201 195 214 216 218 210 231 199 220 241 237 240 255 266 177 159 170 173 186 200 193 188 193 193 194 190 190 192 194 199 202 204 207 211 213 215 219 221
330 285 334 282 255 229 217 220 226 219 219 227 195 209 185 220 221 239 223 225 246 186 187 184 191 191 190 188 189 192 192 192 191 195 198 198 201 202 205 208 209 211 214 218
270 313 352 277 283 215 231 218 203 213 213 209 211 196 194 203 199 214 243 184 214 245 199 191 194 186 191 187 190 191 192 189 191 198 200 200 198 200 203 204 204 206 208 210
238 270 248 276 305 208 217 211 220 192 217 211 224 209 197 208 217 199 196 188 189 160 188 185 194 189 194 191 190 194 190 189 193 198 198 201 200 201 201 200 203 203 204 204
215 223 261 257 268 266 186 175 179 170 240 204 196 213 217 168 83 30 329 150 226 220 181 167 186 200 190 186 193 189 188 193 195 197 200 200 202 199 197 201 200 199 199 201
219 206 199 263 310 254 210 175 135 124 226 310 146 149 147 137 116 232 246 185 101 18 308 224 176 178 193 206 189 186 191 191 196 200 203 200 198 198 197 199 198 195 198 202
63 116 200 253 259 275 298 207 129 122 216 86 86 127 130 106 166 190 257 287 275 253 292 219 226 182 187 196 186 190 193 197 204 206 206 199 195 196 199 194 193 194 195 193
118 148 133 280 262 259 343 316 157 169 112 129 108 127 100 105 92 84 73 65 82 253 273 281 200 222 225 191 185 192 197 205 208 204 199 199 194 193 192 189 189 190 184 180
168 208 165 156 241 319 307 306 11 93 114 68 95 71 116 99 69 46 49 60 49 40 9 343 255 244 238 205 196 190 204 201 197 192 191 189 187 188 188 180 176 173 176 172
172 169 157 55 106 346 358 350 358 42 74 77 83 84 83 106 91 80 59 36 39 36 36 18 10 304 220 220 205 208 202 189 178 175 180 181 177 174 175 177 175 172 170 162
176 134 117 346 350 311 342 352 330 23 59 61 54 64 60 85 63 72 70 40 31 32 29 27 24 17 5 336 180 183 174 171 157 148 153 160 155 151 144 146 154 165 169 176
343 152 147 99 285 277 339 357 18 40 46 41 62 56 40 53 60 44 50 33 35 31 17 15 19 8 16 15 350 161 150 147 140 138 137 139 131 127 119 108 105 136 138 150